Location: Mount Cross
(36.6390°N, 79.4878°W)
Time: 08:35:25
(UTC+00:00)

Vanguard 1 Rocket - Pass Details

Date: 07 April 2023
Orbit: 654 x 4221 km, 34.3° (Epoch: 01 June)

Event Time Altitude Azimuth Distance (km) Brightness Sun altitude
Rises 00:08:35 0° 233° (SW) 7,278 12.6 -5.6°
Reaches altitude 10° 00:12:58 10° 230° (SW) 6,596 12.3 -6.4°
Maximum altitude 00:36:53 67° 154° (SSE) 4,438 10.7 -11.1°
Drops below altitude 10° 01:00:11 10° 79° (ENE) 6,472 11.2 -15.5°
Enters shadow 01:02:08 - 78° (ENE) 6,779 11.3 -15.9°
Sets 01:04:23 0° 77° (ENE) 7,147 - -16.3°
